Wind_Speed
6 7 7 8 10 12 13 15 16 18 18 18 18 18 18 18 19 19 18 17 16 16 17 17 17 17 16 15 14 13 12 11 10 9 7 7 7 8 9 9 10 10 10 10 10 10 10 10 10 11 11 11 11 11 11 11 11 12 12 12 12 12 12 12 12 12 12 12 12 12 12 12 12 12 12 12 13 13 13 13 13 13 13 13 14 14
5 6 7 8 9 10 12 14 15 16 17 18 17 17 18 18 19 19 18 16 16 16 16 16 16 16 15 14 13 11 10 9 7 6 6 7 8 8 9 9 9 9 9 9 9 9 10 10 10 10 11 11 11 11 11 11 11 11 11 11 11 11 11 11 12 12 12 12 12 12 12 12 12 12 13 13 13 13 13 13 13 13 13 13 13 13
5 6 7 8 8 10 12 13 14 15 16 16 16 17 17 17 18 18 17 15 15 15 15 16 15 14 13 11 10 8 7 6 5 5 6 7 8 9 9 9 9 9 9 9 9 10 10 10 10 10 11 11 11 11 11 11 10 10 10 10 11 11 11 11 11 11 11 12 12 12 12 12 12 13 13 13 13 13 13 13 13 13 13 13 13 13
5 6 7 7 8 9 11 12 13 13 14 14 15 15 15 16 17 17 16 16 15 15 15 14 13 11 9 8 6 6 5 4 5 6 7 8 8 9 9 8 8 8 8 9 9 10 10 10 11 11 11 11 11 11 11 11 10 10 10 10 10 10 10 10 11 11 11 11 12 12 12 12 12 13 13 13 13 13 13 13 13 13 13 13 13 13
4 5 6 7 8 9 10 11 11 11 11 12 12 12 13 13 14 15 15 15 15 14 12 11 9 7 6 5 4 4 4 4 5 7 8 8 8 8 8 7 7 8 9 10 10 11 11 11 11 11 11 11 11 11 11 11 10 10 10 10 10 10 10 11 11 11 12 12 12 12 12 13 13 13 13 13 13 13 13 13 13 13 13 13 13 13
3 3 5 6 7 7 8 8 8 8 8 9 9 9 10 10 11 11 11 11 11 10 8 7 6 5 4 4 3 3 3 3 5 7 8 8 7 7 7 7 7 8 10 10 11 11 11 11 11 11 11 11 11 11 11 10 10 10 10 10 10 11 11 11 12 12 12 13 13 13 13 13 13 13 13 13 13 13 13 13 13 13 13 13 13 13
3 3 4 5 5 6 6 5 5 5 5 6 6 7 7 7 7 7 7 7 6 6 5 5 4 4 3 3 3 3 3 4 5 7 8 8 7 7 8 8 9 10 10 11 10 10 10 10 10 10 10 10 10 10 10 10 10 10 10 11 11 11 12 12 12 12 13 13 13 13 13 13 13 13 13 13 13 13 13 13 13 13 13 14 14 14
4 3 3 3 3 3 3 2 2 2 3 4 4 4 4 4 4 4 4 4 4 4 4 4 3 3 3 3 3 4 5 5 6 7 8 9 10 11 11 11 11 11 11 10 10 9 9 9 9 9 9 9 9 10 10 10 10 10 11 11 12 12 12 12 13 13 13 13 13 13 13 13 13 13 13 13 13 13 13 13 13 13 13 14 14 14
5 4 3 2 2 1 1 1 1 1 1 2 2 3 3 3 3 3 3 3 3 3 3 3 3 3 3 3 4 5 5 6 6 7 8 9 10 11 12 12 12 12 11 10 9 9 9 9 9 9 9 10 10 10 10 10 11 11 11 12 12 12 13 13 13 13 13 13 13 13 13 13 13 13 13 13 13 13 13 13 13 13 13 14 14 14
4 4 3 2 1 1 1 1 1 1 1 1 1 2 2 2 2 3 3 3 3 3 3 4 4 4 4 4 4 5 5 6 6 7 8 9 10 11 12 13 14 13 12 10 9 9 9 10 10 10 10 10 11 11 11 11 11 12 12 12 12 13 13 13 13 13 13 13 13 13 13 13 13 13 13 13 13 13 13 13 13 13 14 14 14 14
3 2 2 1 1 0 0 0 0 0 1 1 2 2 3 3 4 5 5 5 5 4 5 5 6 5 5 4 4 5 6 6 7 8 9 11 12 13 14 14 15 14 13 12 11 11 11 12 12 12 12 12 12 12 13 13 13 13 14 14 14 14 14 14 13 13 13 13 13 13 13 13 13 13 13 13 13 13 13 14 14 14 14 15 15 15
2 1 0 0 1 1 1 1 1 1 2 3 3 4 5 5 5 6 8 8 7 6 6 6 6 5 4 4 4 5 7 8 9 10 11 12 13 14 14 15 14 13 13 12 13 13 13 14 14 15 15 15 16 16 16 16 17 17 16 16 15 15 14 13 12 12 12 12 12 12 12 13 13 13 13 14 14 14 14 14 14 15 15 15 16 16
1 1 2 2 2 2 3 3 3 3 4 5 5 6 6 6 6 7 7 7 7 6 6 6 5 5 4 4 5 6 8 9 11 12 12 13 13 14 15 15 14 13 13 12 12 13 13 14 15 15 16 16 17 18 18 18 18 18 17 16 14 13 12 11 11 11 11 12 12 12 12 13 13 13 14 14 14 14 14 14 15 15 15 16 16 16
2 2 2 3 3 3 4 4 5 5 5 5 5 5 5 5 6 5 5 5 4 4 4 4 4 4 4 5 6 8 9 10 11 12 12 12 13 14 15 16 16 15 13 12 12 11 11 12 12 13 14 14 15 16 16 16 16 15 14 12 11 11 10 10 11 11 11 12 12 12 13 13 13 14 14 14 14 15 15 15 15 15 16 16 16 16
3 3 4 4 4 4 4 4 5 5 4 4 4 4 4 4 4 4 3 3 3 3 4 4 5 5 5 6 7 8 8 9 10 10 11 12 13 15 16 17 17 16 14 13 12 10 9 9 9 10 11 11 12 12 12 12 12 11 10 10 9 10 10 10 11 11 12 12 12 13 13 13 13 14 14 14 14 15 15 15 15 16 16 16 17 17
4 4 5 5 5 4 4 4 4 4 3 3 3 3 3 3 3 3 3 2 3 4 4 5 6 6 6 6 6 6 7 8 9 10 12 13 15 16 17 17 17 17 15 13 11 9 7 6 7 7 8 8 9 9 9 9 9 9 9 9 9 10 10 11 11 12 12 12 13 13 13 13 13 14 14 14 14 15 15 15 16 16 16 17 17 17
5 5 5 5 5 5 4 3 3 3 3 3 3 3 3 3 3 4 4 4 5 5 5 5 5 6 6 7 6 6 6 8 10 12 14 16 18 18 18 17 17 17 15 13 11 8 6 5 5 6 6 6 7 7 7 8 8 8 9 9 10 10 11 11 12 12 12 13 13 13 13 13 14 14 14 14 14 15 15 15 15 16 16 16 17 17
6 6 5 5 5 5 4 4 3 3 3 3 3 3 4 4 4 5 5 6 6 5 5 6 5 5 6 7 7 6 8 10 13 16 18 19 20 20 18 17 16 16 15 13 10 8 7 6 6 6 6 6 7 7 8 8 9 9 10 10 11 11 11 12 12 12 13 13 13 13 13 13 13 13 14 14 14 14 15 15 15 16 16 16 16 17
6 6 5 5 5 5 4 4 4 4 4 4 5 5 5 5 5 6 6 7 7 6 6 6 6 6 7 8 8 9 10 13 15 18 19 19 19 19 17 15 15 15 14 13 11 9 8 8 8 8 8 8 8 8 8 9 9 10 10 11 11 12 12 12 12 13 13 13 13 13 13 13 13 13 14 14 14 15 15 15 16 16 16 16 17 17
5 5 4 4 5 5 5 5 6 6 6 7 7 7 7 7 7 7 7 8 8 8 9 8 8 8 8 9 10 11 12 14 16 17 17 17 17 17 15 14 13 13 14 13 11 10 10 10 10 10 9 9 9 9 9 9 10 11 11 11 12 12 12 12 13 12 13 13 13 13 13 13 13 13 14 15 15 15 16 16 16 17 17 17 18 18
4 4 4 5 5 5 6 7 8 8 8 9 9 8 8 8 8 8 9 9 9 10 10 9 9 10 10 11 12 13 14 15 15 14 14 15 15 15 13 12 12 12 13 13 12 11 11 12 12 11 11 10 10 10 10 11 11 11 12 12 12 12 12 12 12 12 12 12 12 12 13 13 14 14 15 15 16 16 16 16 17 17 17 18 18 18
3 3 4 4 5 5 6 7 8 8 8 9 8 8 8 8 8 9 9 9 9 10 10 10 10 11 12 13 14 15 15 13 12 12 12 12 13 13 12 10 10 12 13 13 13 13 13 13 13 13 12 12 12 12 12 11 12 12 12 12 12 12 11 11 12 12 12 12 12 12 13 14 15 15 16 16 16 16 16 16 17 17 17 17 18 18
2 2 3 3 4 4 5 5 6 6 7 7 7 8 8 8 8 8 9 8 9 9 10 11 12 13 14 14 15 14 12 10 10 10 9 9 10 11 10 10 11 12 14 14 14 14 15 15 15 14 14 14 13 12 11 11 11 11 11 11 11 11 11 11 11 11 11 11 12 13 14 15 16 16 16 16 16 16 16 16 16 17 17 17 18 18
1 2 2 3 4 4 5 5 6 6 7 7 7 7 8 8 9 9 9 9 10 10 11 13 13 13 14 13 13 11 10 8 9 9 8 8 10 11 11 11 12 14 15 15 14 15 16 17 17 16 15 14 12 10 10 10 10 10 10 10 9 9 9 9 10 10 11 11 12 14 15 16 16 16 16 16 16 16 16 16 16 17 17 17 18 18
2 2 3 4 4 5 5 6 7 7 8 8 8 9 9 9 10 10 11 11 11 12 12 13 13 13 13 12 11 10 9 8 8 8 8 8 10 12 12 12 13 14 15 15 15 17 18 19 19 17 14 11 8 7 7 8 9 9 8 8 8 8 8 8 9 10 11 13 14 15 16 16 16 16 16 15 15 15 16 16 16 17 17 17 18 18
2 2 3 4 4 5 6 7 8 8 9 10 10 11 11 12 12 12 12 12 12 12 12 12 12 12 12 11 10 9 8 7 8 9 9 9 10 12 12 12 12 13 14 16 17 18 20 21 20 16 11 7 4 5 6 7 7 7 6 6 6 7 8 9 10 12 13 15 16 16 16 16 16 15 15 15 15 15 16 16 16 17 17 17 18 18
2 3 4 4 5 7 8 9 10 11 11 11 12 12 13 13 14 13 12 12 12 11 11 11 11 11 12 11 10 9 8 8 9 10 10 11 11 11 11 11 11 12 15 17 19 19 19 19 17 14 8 3 2 3 5 6 6 6 5 6 7 8 9 11 12 14 16 17 17 17 16 15 15 15 15 15 15 16 16 16 16 17 17 17 18 18
7 8 8 9 10 11 12 13 14 15 15 14 13 12 12 13 14 13 13 12 11 11 11 11 10 10 10 10 10 10 10 10 10 10 11 10 9 8 9 10 11 13 16 18 20 20 17 15 13 10 5 1 2 4 5 6 7 7 7 8 9 10 12 14 15 17 17 17 17 16 15 15 15 15 15 16 16 16 16 16 16 17 17 17 18 19
11 12 12 13 13 14 15 16 17 17 16 15 13 12 12 13 14 14 14 13 12 11 11 11 11 10 10 11 12 12 12 11 10 9 9 8 7 7 8 9 11 13 16 18 19 17 14 12 10 7 3 2 3 5 6 6 7 8 9 10 12 13 15 17 17 17 16 16 15 14 15 15 15 16 16 16 16 16 16 16 16 16 17 17 18 19
13 14 14 15 15 16 17 18 19 18 17 15 13 12 12 13 14 15 15 14 13 12 12 12 11 11 11 11 11 10 9 7 6 5 7 6 6 7 9 10 11 13 15 15 13 10 10 11 8 4 1 2 4 5 6 8 9 10 12 14 15 16 16 16 15 15 14 14 14 14 15 15 16 16 16 16 16 16 16 16 16 16 16 17 18 19
14 15 16 16 17 18 19 20 20 19 16 14 12 11 11 12 13 14 14 14 14 13 13 13 13 12 11 9 6 4 5 5 5 6 8 7 8 9 10 11 12 12 12 10 7 6 6 8 7 4 4 6 9 10 11 12 13 14 15 16 16 15 14 13 12 12 13 14 14 15 15 16 16 16 16 16 16 16 16 15 15 15 16 17 18 18
15 15 16 17 18 19 20 21 20 18 15 11 9 9 9 9 10 11 12 12 13 14 14 14 14 14 13 11 8 7 8 8 8 10 11 10 10 11 12 11 11 11 10 9 7 5 3 5 9 12 14 16 18 19 18 17 17 16 15 14 13 12 11 11 12 14 15 16 16 16 16 15 15 15 14 14 14 14 15 14 14 15 16 16 17 18
15 15 16 18 19 20 21 21 19 16 12 9 7 6 6 7 7 7 8 9 10 10 11 12 12 12 12 13 13 13 13 12 11 11 12 12 12 12 12 11 11 11 11 11 10 9 8 10 14 18 20 20 19 19 20 19 18 15 13 12 13 13 13 13 15 16 17 17 17 17 16 15 14 13 13 13 13 14 14 14 13 13 14 15 16 17
17 18 19 21 22 22 22 21 17 13 9 7 5 5 5 5 4 4 4 5 6 7 7 7 7 8 9 10 12 13 14 12 10 9 10 11 12 12 13 13 12 12 12 12 11 12 12 14 16 17 18 19 19 18 18 18 16 14 12 12 13 14 15 16 17 18 18 18 17 16 15 14 14 14 14 14 14 14 14 13 13 13 13 14 16 17
21 22 23 24 24 23 22 19 14 10 7 5 4 4 4 4 4 4 3 4 4 5 6 7 8 8 9 10 11 13 14 14 12 11 11 13 14 14 15 14 14 13 12 12 12 12 12 14 16 16 17 18 19 18 17 15 14 13 12 13 14 16 17 18 18 18 18 17 17 16 15 15 15 15 15 15 15 15 14 14 14 14 14 15 16 17
23 24 24 24 23 21 18 15 11 7 5 5 5 5 5 6 6 6 6 6 6 7 7 9 10 11 12 13 14 15 17 17 17 16 15 16 16 16 16 15 15 14 13 13 13 13 13 15 16 17 17 17 17 17 16 15 14 13 14 15 16 18 18 18 18 17 17 17 17 17 16 16 16 17 17 17 16 16 15 15 15 16 16 16 17 17
22 22 22 20 18 15 13 10 8 7 6 6 6 7 7 8 8 9 9 9 9 9 10 11 12 13 14 15 17 18 19 19 19 18 18 18 18 18 17 17 17 16 14 14 14 14 14 15 16 17 16 16 15 15 16 16 16 15 16 17 18 18 19 18 16 16 16 17 17 17 17 18 18 18 18 18 17 17 17 17 18 18 18 18 18 17
18 18 16 15 12 10 8 8 7 7 7 7 7 8 9 10 10 11 11 12 12 13 13 14 14 15 15 16 17 18 19 19 18 18 18 18 17 17 18 18 18 17 16 15 15 15 15 14 14 14 15 16 16 17 17 17 17 18 18 18 19 18 18 16 15 14 15 16 17 18 19 19 19 19 19 18 18 19 19 20 20 19 19 19 19 18
14 13 12 10 8 7 7 7 7 8 8 8 9 9 10 11 11 12 12 13 14 15 15 16 16 16 16 17 17 17 17 17 16 16 16 15 15 15 16 17 17 17 16 16 15 15 15 14 14 14 14 15 17 18 18 18 18 18 19 19 19 18 16 14 14 14 16 17 18 19 19 18 18 18 19 19 20 20 21 21 21 21 20 21 21 21
11 11 10 9 8 7 7 8 9 9 8 8 9 10 10 11 12 12 13 14 15 16 16 15 15 15 15 15 15 15 16 16 16 16 15 14 14 14 15 16 17 17 16 16 15 15 15 15 16 17 17 17 17 18 19 19 18 18 18 18 18 17 15 15 16 16 17 17 17 18 18 18 18 19 20 20 21 21 21 22 22 21 21 21 22 23
11 11 10 9 9 8 9 10 9 9 8 8 9 10 10 11 12 13 14 15 15 14 13 12 12 12 13 13 13 14 14 14 14 14 13 13 13 13 14 15 16 16 16 15 15 16 16 16 17 17 18 18 18 19 20 20 19 18 18 17 18 19 20 19 18 17 16 16 16 17 18 19 20 20 21 21 21 22 22 22 22 23 22 22 22 22
12 12 11 10 10 10 11 11 9 8 8 9 10 10 11 11 12 13 14 14 14 13 11 11 12 13 14 15 14 13 13 12 12 11 11 11 11 12 13 14 14 15 15 16 16 16 16 17 17 17 18 17 18 19 20 20 20 19 18 18 20 21 21 19 17 15 15 16 17 17 18 20 21 22 22 22 22 23 22 22 23 22 22 22 21 21
12 11 11 10 11 11 12 10 9 8 8 9 10 11 11 11 12 12 13 13 13 12 12 12 13 14 15 15 15 14 13 11 11 10 10 11 11 11 12 13 13 14 15 15 16 16 17 17 17 18 18 18 18 19 20 21 20 19 19 18 19 18 17 18 17 16 16 17 18 19 19 20 21 22 22 23 23 24 23 23 23 22 21 21 21 22
12 12 11 12 12 11 11 10 9 9 9 10 11 11 11 11 11 11 12 12 12 12 12 12 13 14 15 15 15 14 13 11 10 10 10 10 11 11 12 12 12 13 14 15 16 16 16 17 17 18 18 18 18 19 20 21 21 20 20 19 18 18 18 19 20 19 19 19 19 19 20 20 21 22 23 24 24 23 23 22 22 22 22 21 21 22
14 13 13 12 11 10 10 10 9 9 10 10 11 11 11 11 11 10 11 12 12 12 12 13 13 13 13 13 13 13 13 13 12 11 11 11 10 10 11 11 11 12 13 14 16 17 17 17 17 18 18 18 18 19 20 20 21 21 20 19 18 19 20 21 20 20 20 20 20 21 21 21 22 23 23 23 22 22 21 21 22 22 22 21 21 22
14 13 12 11 10 10 10 10 10 10 10 11 12 12 11 11 11 11 11 11 12 13 13 13 12 12 12 13 13 13 14 14 13 13 12 11 11 10 10 10 10 11 12 14 15 17 18 19 19 19 18 18 19 20 20 20 20 20 21 20 19 19 20 20 20 19 19 20 21 22 22 22 22 22 22 22 22 22 21 21 20 20 21 21 21 22
12 11 10 10 10 10 10 10 10 11 11 12 12 12 11 11 11 11 11 11 12 12 12 12 12 12 13 13 14 14 14 14 14 13 13 12 12 11 10 9 10 11 12 14 15 17 18 19 20 21 20 19 19 20 21 20 20 20 20 20 19 19 19 20 20 19 19 20 21 22 22 22 21 21 21 21 22 22 21 20 20 20 20 20 20 20
10 10 9 9 10 10 11 11 11 11 12 12 13 13 12 11 11 11 11 11 11 11 11 11 11 12 13 14 14 14 14 14 14 13 13 13 12 12 11 10 11 11 12 14 15 17 18 19 21 22 22 21 20 20 21 21 20 20 20 19 19 19 19 20 20 20 20 20 21 21 21 21 21 21 21 22 22 22 22 21 20 19 19 19 19 20
9 9 10 10 10 11 11 11 11 12 12 13 13 13 13 12 11 10 10 11 11 12 12 12 12 12 13 14 14 14 14 14 14 14 14 14 13 13 12 12 12 13 14 15 16 17 19 20 21 21 22 23 23 23 23 22 21 20 19 19 19 19 19 20 20 20 19 20 20 21 21 21 21 22 22 22 22 23 23 23 22 21 19 19 19 20
10 10 10 11 11 11 11 12 12 12 13 13 13 13 13 12 11 11 11 11 11 12 12 13 13 13 13 14 14 14 14 14 14 14 14 14 14 13 13 13 13 14 14 15 15 16 16 17 19 20 20 22 23 24 24 23 22 21 20 19 19 19 19 20 21 21 20 21 21 22 22 22 22 21 20 20 22 23 24 24 23 22 20 19 20 21
11 11 12 12 12 12 12 12 12 13 13 13 13 13 13 12 12 11 11 11 12 13 13 14 13 13 13 14 14 14 14 14 14 14 15 15 14 14 14 14 14 13 13 13 12 12 12 12 13 15 17 18 19 21 23 23 22 21 20 20 20 20 20 21 22 22 22 22 22 22 22 21 21 20 19 18 20 22 23 24 24 23 21 20 20 21
Wind_Direction
275 274 270 266 257 248 243 244 243 239 236 233 226 219 218 226 235 240 241 240 240 240 244 247 250 254 258 262 263 260 253 242 237 240 253 268 278 283 283 283 282 281 282 284 286 288 288 288 287 284 282 281 280 279 278 277 275 274 274 274 276 277 278 279 280 281 281 281 281 281 281 281 281 281 280 280 280 281 282 283 283 283 283 283 282 282
263 261 257 255 251 244 239 242 242 239 237 236 233 229 226 230 237 242 244 244 244 245 248 251 256 260 264 266 264 257 245 235 236 247 262 273 278 280 281 281 282 284 286 288 290 292 292 291 289 287 285 284 283 281 279 277 275 274 274 274 274 276 277 278 279 279 280 281 281 281 281 282 281 281 281 281 281 281 281 281 281 281 281 280 280 279
244 240 237 240 239 237 236 240 242 242 242 243 244 244 240 238 240 242 243 244 247 251 255 258 262 265 266 265 258 246 233 230 243 261 272 278 281 282 282 283 284 286 289 292 293 294 294 292 290 288 286 285 283 281 280 278 276 275 275 275 275 275 276 277 278 279 280 281 281 281 281 281 280 281 281 280 280 279 279 279 279 279 280 279 278 277
235 229 230 232 233 235 240 244 247 248 250 251 254 254 252 246 243 244 246 248 252 256 260 263 263 263 260 254 242 228 221 235 257 271 278 281 282 282 282 283 286 290 293 296 296 295 294 292 290 287 285 282 281 280 279 277 276 275 275 275 277 278 279 280 281 282 283 283 282 281 281 280 280 279 279 278 278 277 277 277 277 278 278 279 278 276
233 231 234 232 230 235 245 251 255 256 257 257 257 257 256 251 248 248 251 254 256 258 260 259 257 253 246 235 222 212 213 245 270 278 281 281 281 280 281 284 289 294 298 299 298 296 294 291 289 286 283 281 279 278 277 276 276 276 275 277 278 279 281 281 282 284 285 284 284 283 282 282 281 281 279 278 277 277 277 277 276 277 278 278 278 278
213 227 236 232 230 236 248 255 259 260 259 256 255 255 254 253 251 250 252 253 254 253 251 247 243 238 230 218 210 205 215 249 271 278 279 277 276 278 280 285 292 299 303 303 301 298 295 292 288 285 282 280 278 277 276 275 276 277 276 277 279 280 281 281 282 282 282 282 282 282 282 281 281 280 279 278 278 278 278 278 278 278 278 278 279 278
181 209 229 229 232 240 250 257 262 261 253 244 243 245 246 246 245 244 244 245 243 241 236 233 229 223 217 214 218 228 241 251 261 266 267 265 265 269 275 283 293 300 304 304 303 299 295 291 287 284 283 281 279 278 277 277 277 278 278 278 279 280 281 281 281 281 281 281 280 280 280 280 280 279 278 278 277 277 277 277 277 278 278 279 279 278
156 179 206 212 222 234 243 249 256 252 240 228 224 224 225 227 229 229 231 232 231 229 227 223 219 215 218 231 246 256 258 258 258 259 259 260 262 267 273 282 291 298 303 304 302 298 293 289 286 284 283 281 280 280 279 279 278 278 278 278 278 279 280 280 280 280 280 280 280 280 280 279 279 278 278 277 276 276 276 276 276 277 277 278 278 278
145 150 161 172 176 171 169 175 164 164 187 205 208 209 210 214 215 216 219 223 227 232 236 238 239 240 244 255 261 263 263 261 260 259 261 264 268 274 280 287 294 298 299 299 297 293 288 285 282 281 280 280 281 281 279 279 278 277 277 277 277 278 279 279 279 279 279 279 279 279 279 279 278 277 277 276 276 276 276 276 276 276 276 277 278 278
145 144 146 149 146 132 127 127 132 146 162 190 215 227 234 241 245 249 248 249 250 257 266 273 276 278 277 273 268 266 265 262 260 261 265 272 279 285 291 295 297 296 294 291 288 284 280 278 278 278 279 281 282 281 278 277 276 274 274 275 276 277 277 277 277 277 277 277 278 278 277 277 277 276 276 276 275 275 275 275 275 275 276 276 277 277
128 137 140 142 144 150 63 45 28 254 249 258 258 261 262 267 274 279 282 286 289 291 290 289 290 291 288 279 270 266 265 264 264 267 272 278 284 290 295 298 297 294 289 282 276 272 272 273 274 276 277 277 276 274 272 271 270 270 270 272 273 274 274 274 274 275 275 276 276 276 277 277 277 276 276 275 275 274 274 274 274 275 275 276 276 277
99 87 67 300 289 300 314 323 321 306 295 290 288 286 285 287 289 290 290 294 302 307 305 299 293 289 283 268 262 265 268 270 273 276 279 283 288 293 298 300 299 294 286 277 271 268 269 270 271 272 272 271 269 268 267 266 266 267 268 269 270 271 272 272 273 274 275 275 276 276 277 277 277 276 276 275 275 274 275 275 275 275 276 276 276 277
39 0 336 322 317 317 320 322 319 315 310 305 300 297 299 305 306 301 296 297 302 306 303 297 290 283 277 269 268 271 276 279 281 284 287 290 294 300 304 306 305 300 292 282 275 271 270 270 269 268 267 266 266 265 265 265 265 266 267 268 268 269 271 272 273 274 274 275 276 277 277 277 277 277 276 276 275 275 275 276 276 276 276 277 277 277
19 355 339 333 331 330 329 329 328 325 322 319 316 314 319 322 321 316 308 304 301 297 291 287 284 283 282 281 280 282 284 286 288 290 293 297 301 306 309 309 308 305 300 291 283 277 274 271 268 264 262 261 261 261 262 262 263 263 263 264 266 269 271 273 274 274 275 276 277 277 278 278 278 277 277 277 277 277 277 277 277 277 277 277 278 278
18 359 345 341 342 344 343 343 344 344 343 342 340 339 336 337 338 340 338 325 310 299 292 290 292 292 289 284 285 287 288 289 291 295 297 299 302 306 309 309 308 306 303 298 292 286 279 273 266 261 258 255 255 255 256 256 256 258 261 265 269 272 273 274 275 276 277 277 277 278 278 278 278 278 279 278 278 278 279 279 278 278 278 278 278 279
19 6 355 353 360 7 10 11 13 14 12 11 9 4 357 357 356 353 355 341 320 311 311 311 309 302 293 287 284 286 288 290 293 297 300 300 300 304 307 307 306 305 303 299 297 294 288 275 265 260 256 253 251 250 250 250 253 258 264 269 272 273 274 275 276 277 278 278 278 278 278 279 280 280 280 280 280 280 280 280 280 280 279 279 279 279
34 30 26 25 31 39 42 41 39 33 27 19 11 4 357 352 344 335 327 319 316 317 317 313 310 304 297 293 289 287 289 295 299 302 302 301 301 302 305 305 303 302 301 300 300 302 298 287 275 268 264 258 253 251 251 254 258 264 268 271 273 273 274 275 276 276 277 277 278 279 280 281 282 282 283 283 283 283 283 283 282 282 282 281 281 281
47 46 47 50 51 51 49 45 39 27 17 12 5 354 343 335 330 326 322 318 320 322 319 312 305 300 298 295 295 295 294 298 302 304 303 301 301 302 303 302 300 299 299 300 303 306 305 299 294 290 284 275 267 262 260 260 262 265 269 270 271 272 273 273 275 275 276 277 278 280 281 283 283 284 285 285 285 285 285 285 284 284 283 283 282 282
40 35 34 37 35 27 21 16 10 4 359 355 350 347 341 334 329 326 323 320 319 318 316 311 303 296 293 290 292 295 295 297 300 302 302 301 300 301 302 300 298 297 298 301 305 309 308 304 301 298 295 288 281 273 267 265 263 264 267 269 270 271 271 272 274 276 278 278 280 282 283 285 286 287 287 287 287 287 286 286 285 285 285 284 284 283
8 0 352 344 340 341 347 344 340 337 338 335 333 331 332 327 323 321 317 316 314 312 309 306 298 293 292 290 291 293 296 298 300 300 299 297 297 298 298 297 295 295 297 302 307 311 309 307 304 302 299 294 288 282 276 272 268 266 267 269 270 271 271 272 274 276 278 280 282 283 285 286 287 288 288 288 288 289 288 288 287 287 286 285 285 284
327 322 316 315 313 315 319 318 317 317 318 319 321 323 322 320 317 312 309 309 308 306 304 299 293 291 291 290 292 295 298 300 299 297 295 294 293 294 296 296 296 296 298 302 306 309 308 305 303 301 300 298 294 289 283 277 271 268 266 267 268 269 271 272 274 276 278 279 282 284 286 287 288 289 289 290 290 290 289 289 288 287 287 286 285 284
301 302 304 305 303 304 307 304 307 311 312 315 319 320 318 314 310 306 304 303 301 298 296 293 292 293 292 292 295 297 299 297 294 290 291 290 290 291 296 298 298 297 298 301 305 307 305 302 300 300 300 300 298 292 284 276 269 265 263 263 265 268 270 272 274 276 278 280 283 285 287 288 290 291 292 292 291 291 290 289 289 288 287 286 285 285
295 302 312 317 316 317 319 320 322 324 324 324 321 317 315 311 306 303 301 299 298 296 295 294 294 294 294 295 297 298 297 292 286 285 286 284 285 290 297 299 299 297 297 301 304 306 304 301 300 301 304 304 299 291 280 271 265 263 261 261 263 265 269 271 274 276 278 281 284 286 288 290 291 291 291 291 291 290 290 289 288 288 286 286 285 285
332 338 343 344 344 343 341 340 338 335 332 327 322 318 316 312 309 305 302 298 295 293 292 293 292 291 291 293 296 296 291 282 278 279 280 280 283 288 295 298 299 297 298 302 306 306 304 302 303 306 309 307 299 286 272 263 261 260 259 259 261 264 269 272 274 276 278 281 284 287 289 291 291 291 291 290 289 288 288 287 286 285 285 284 284 284
352 353 353 354 353 350 345 339 334 330 327 322 317 313 310 306 302 297 293 290 289 289 289 288 286 286 289 292 293 291 286 277 275 277 280 282 284 287 292 298 299 299 301 305 307 307 306 306 308 312 314 311 298 278 263 254 252 254 254 256 260 265 269 271 273 275 278 282 285 288 290 291 292 290 289 287 286 286 285 284 284 283 283 283 283 283
7 359 349 345 338 330 323 319 317 316 315 313 311 308 303 299 295 291 288 285 284 285 285 284 285 286 290 291 291 289 285 280 279 280 280 283 286 289 293 300 303 304 305 308 309 309 310 311 315 320 322 315 291 265 250 244 241 242 245 251 257 262 264 266 269 273 278 282 285 288 289 290 289 288 286 285 284 284 284 283 283 283 283 283 283 282
327 316 308 305 305 303 303 301 300 299 298 298 299 299 297 295 293 289 282 280 279 280 281 282 285 288 290 289 287 286 286 286 284 282 281 282 284 287 294 303 308 311 312 312 312 312 313 315 320 326 329 319 266 243 235 230 228 229 234 241 249 255 261 267 271 276 279 282 284 286 287 287 287 287 285 284 284 284 283 283 283 283 284 284 283 281
295 294 294 295 297 300 301 302 303 302 299 295 291 288 287 286 284 280 275 275 275 274 272 275 280 285 288 288 288 289 290 288 284 282 283 283 281 283 295 308 315 318 320 318 317 316 317 320 325 330 332 300 235 230 228 227 228 231 237 245 253 262 268 274 278 280 281 282 282 283 285 286 286 286 285 284 284 283 283 284 284 284 285 284 282 281
294 295 297 299 301 304 307 310 312 312 309 302 293 284 277 271 269 270 271 271 271 269 267 269 273 278 283 288 291 294 292 287 283 284 289 289 286 289 303 314 320 324 327 326 324 321 320 324 330 336 327 254 230 233 233 234 238 245 252 259 267 272 275 278 279 280 281 281 282 283 285 286 286 285 285 285 284 284 283 284 285 286 285 284 282 281
297 298 300 301 304 307 310 314 317 317 314 306 295 282 271 263 261 263 264 266 266 266 264 266 269 274 280 288 295 297 294 290 290 300 309 306 299 300 309 315 319 325 331 334 331 325 320 323 330 340 323 244 237 240 244 248 254 261 268 272 275 277 278 279 280 281 282 283 284 286 286 286 285 285 284 284 284 283 283 284 285 285 285 284 283 282
299 300 301 303 305 308 311 315 318 318 314 306 294 282 273 267 265 264 264 263 263 263 262 262 264 268 272 280 287 293 289 298 309 318 320 315 305 302 308 311 314 319 329 337 337 327 320 320 326 332 316 296 287 280 275 272 273 276 279 280 281 281 282 284 287 289 290 291 290 289 288 286 285 284 283 282 282 282 282 284 284 284 284 284 284 284
297 298 301 303 306 308 312 315 317 317 313 305 294 285 279 275 272 269 267 263 261 260 261 261 262 263 263 264 263 266 275 287 300 310 314 310 303 300 303 305 308 311 317 322 318 308 304 304 307 308 308 305 302 299 296 294 294 293 292 291 291 291 293 296 297 297 297 297 295 292 290 288 286 285 283 282 282 282 282 282 283 283 284 285 286 287
296 298 301 303 305 308 311 314 316 315 310 303 296 292 289 286 280 274 268 263 260 259 259 261 263 264 263 262 263 266 272 279 289 300 306 303 300 298 300 301 302 304 306 306 300 289 279 284 294 300 303 304 304 303 304 305 307 307 305 301 298 298 299 299 299 298 298 298 297 295 294 292 291 290 288 288 287 286 285 284 283 283 284 285 287 288
298 299 300 302 304 307 309 312 313 311 305 299 296 297 298 296 292 284 274 267 264 263 266 269 272 275 274 273 271 272 274 277 282 290 293 293 294 295 295 296 296 298 300 299 296 290 283 283 289 296 301 302 302 301 301 304 306 307 304 298 295 295 296 297 297 297 298 298 298 298 297 297 297 297 296 295 295 294 293 290 287 284 283 283 285 287
297 297 299 300 303 306 308 310 309 304 295 289 286 289 294 298 300 300 298 292 283 277 276 278 279 281 282 281 280 278 277 278 281 282 281 282 286 290 291 290 291 293 294 293 293 292 289 288 289 293 298 300 300 299 298 300 302 301 296 291 290 291 294 297 299 299 300 300 299 299 300 301 301 301 300 300 300 300 297 294 290 286 284 282 283 285
297 298 299 301 304 307 308 308 303 292 280 276 278 283 287 289 291 292 294 292 288 284 280 277 276 276 276 278 279 279 280 281 282 282 280 279 281 283 285 284 285 287 288 287 287 288 289 290 291 292 293 295 297 298 298 299 299 297 293 291 291 293 296 298 300 301 301 300 299 300 301 302 302 301 301 302 302 300 296 291 288 287 285 284 283 283
299 300 301 304 306 308 308 304 295 280 270 270 275 279 282 283 284 285 284 283 282 280 278 275 274 273 274 274 275 277 279 281 282 282 280 279 279 278 277 278 279 279 279 279 281 283 285 288 290 291 289 288 289 293 297 299 299 296 293 293 294 295 297 299 301 301 299 298 298 299 300 301 300 300 301 302 301 298 295 292 291 292 292 291 289 287
302 304 306 308 310 310 306 299 288 278 271 272 275 278 279 281 283 285 284 283 283 282 281 279 277 276 275 275 275 275 277 278 280 280 280 279 277 274 273 274 275 274 272 271 273 277 279 282 285 287 287 286 285 287 292 296 298 297 296 296 296 297 297 299 300 300 298 297 298 298 298 298 299 299 300 300 300 298 297 297 298 299 299 298 297 294
306 308 311 312 312 309 302 295 289 282 277 275 275 276 278 281 284 286 287 287 287 287 286 286 284 281 279 276 275 275 276 276 278 278 278 276 273 271 271 272 272 272 271 269 269 269 270 272 275 279 283 286 288 289 291 293 295 297 300 301 300 299 298 299 299 298 296 296 296 296 297 297 298 298 298 298 298 298 298 299 300 301 302 302 301 299
307 309 310 311 308 303 298 294 291 288 286 283 280 280 282 287 289 290 290 289 288 288 288 287 285 282 280 278 277 277 277 277 277 277 276 274 271 269 269 271 272 273 273 272 269 266 264 265 268 271 275 280 285 288 291 291 293 296 300 302 301 299 298 298 297 296 295 295 295 296 297 298 298 297 297 297 297 297 298 299 300 301 301 300 299 298
305 306 306 304 300 297 294 291 290 292 293 291 289 289 291 293 295 295 295 295 294 293 293 292 292 289 286 283 284 284 284 284 284 283 282 277 273 270 270 271 273 275 275 272 269 266 263 263 265 268 270 274 279 283 285 287 289 292 295 295 295 296 298 298 297 296 296 295 295 295 296 296 296 296 296 296 297 297 298 299 299 299 299 297 295 294
300 301 300 298 295 294 293 293 293 291 288 287 287 288 290 294 297 300 303 305 306 307 310 312 311 309 306 303 300 298 298 297 295 292 288 283 278 274 271 271 272 273 273 272 268 265 263 262 263 265 267 271 276 279 282 284 286 287 288 288 292 296 299 297 296 296 296 295 294 294 294 294 295 296 297 298 298 299 299 298 296 295 294 293 292 290
293 292 291 291 292 295 298 299 295 290 285 283 283 286 290 294 299 303 305 307 309 311 314 316 314 311 307 304 303 303 302 300 296 292 288 285 281 277 274 272 271 271 271 269 267 265 264 263 263 263 266 269 272 275 278 281 284 285 284 285 289 294 296 296 297 298 297 295 294 294 294 295 296 297 298 298 298 298 297 295 293 292 290 290 290 289
287 286 287 289 293 295 296 295 292 289 287 285 285 287 291 294 297 300 301 302 304 306 308 310 309 306 301 299 299 301 301 299 296 292 289 287 284 281 277 275 272 270 268 267 265 264 265 265 264 264 266 267 268 270 273 277 280 282 283 284 284 283 283 287 292 296 296 295 294 294 295 296 297 298 298 297 296 296 295 294 293 292 290 290 289 288
286 286 287 288 289 290 290 288 287 286 285 284 286 288 291 293 294 295 295 297 300 302 303 305 304 301 296 295 297 299 301 300 298 296 293 291 289 286 283 280 276 272 268 267 266 265 264 264 265 267 268 267 266 267 269 273 277 280 281 282 281 279 278 282 286 289 290 291 291 292 293 296 297 297 296 296 295 293 292 291 291 290 290 289 288 287
285 285 285 285 284 282 281 281 282 283 284 285 287 289 291 292 293 293 293 295 297 298 300 301 298 292 289 292 296 298 299 300 300 300 299 299 297 294 291 286 282 278 275 272 271 270 268 266 267 269 271 270 269 268 268 270 273 276 279 280 280 280 281 281 282 283 284 286 287 289 293 296 296 295 292 292 293 292 291 289 288 287 288 287 286 285
284 284 284 284 282 281 280 280 282 283 285 287 288 289 290 291 292 293 293 294 295 297 297 297 293 288 287 290 292 294 295 297 298 300 303 304 303 302 298 294 289 285 283 282 280 278 276 275 274 272 271 270 271 271 270 269 269 271 274 277 279 279 279 280 281 281 282 283 284 288 293 295 294 291 289 290 291 291 290 289 287 286 285 285 284 283
283 282 282 282 281 280 281 281 283 284 285 287 288 289 290 290 290 291 290 291 292 294 294 294 291 288 286 286 287 289 290 292 294 296 299 301 303 304 303 301 298 294 291 290 288 285 282 280 278 274 269 265 265 268 271 270 269 268 270 273 275 276 276 278 280 282 282 282 283 286 289 289 287 286 288 290 291 291 290 289 288 286 285 284 283 283
275 275 277 277 278 279 281 281 282 284 285 286 288 289 289 288 286 284 285 287 290 291 291 290 289 287 286 286 287 288 289 289 290 292 293 295 297 299 301 301 301 299 296 293 289 286 283 280 276 271 266 261 259 261 266 267 268 268 268 269 270 271 273 276 280 281 282 282 284 286 287 285 284 283 284 286 288 289 289 289 289 287 285 283 282 281
267 268 270 271 274 277 279 280 282 283 284 284 285 287 288 287 286 284 285 287 289 289 286 285 284 284 285 286 288 288 288 288 289 289 290 291 293 294 294 295 295 294 292 289 287 283 281 279 277 273 267 261 257 256 258 261 265 267 268 267 267 268 270 274 278 281 282 283 285 286 287 285 284 282 280 281 284 286 288 288 288 287 285 284 282 281
270 270 270 271 273 276 277 279 281 282 283 283 284 285 286 286 287 287 287 288 288 286 284 283 282 281 282 284 286 287 287 287 287 287 288 290 292 291 290 289 288 287 284 284 285 284 283 282 282 281 276 265 256 253 254 256 260 264 266 267 267 268 269 273 277 280 283 284 286 286 286 285 283 281 278 277 280 284 287 287 287 286 286 285 284 283
Height
807 807 807 807 807 808 808 808 809 809 810 810 811 812 812 812 812 812 813 814 814 815 816 817 817 818 818 818 818 818 818 818 818 819 819 819 820 820 820 821 821 821 821 821 821 821 821 821 821 821 821 821 821 821 821 821 821 821 821 821 821 821 821 821 820 820 820 819 819 819 819 819 819 819 819 819 819 819 819 819 819 819 819 819 819 819
807 807 807 807 807 808 808 808 809 809 810 810 811 811 812 812 812 812 812 813 814 815 816 816 817 817 817 817 817 817 817 817 817 818 818 818 819 819 820 820 820 820 820 820 820 820 819 819 820 820 820 820 820 820 820 820 820 820 820 820 820 820 820 819 819 819 818 818 818 818 818 818 818 818 818 818 818 818 818 818 818 818 818 818 818 818
807 807 807 807 808 808 808 808 809 809 810 810 811 811 812 812 812 812 812 813 814 815 815 816 816 816 816 815 815 815 816 816 817 817 817 818 818 818 819 819 819 819 819 819 819 818 818 818 818 819 819 819 819 819 819 819 819 819 819 819 819 818 818 818 818 818 817 817 817 817 817 817 817 817 817 817 817 817 817 817 817 817 817 817 817 817
807 807 808 808 808 809 809 809 809 810 810 810 811 811 812 812 812 812 812 813 814 814 815 815 815 814 814 814 814 814 815 816 816 817 817 817 817 818 818 818 818 818 818 818 817 817 817 817 817 818 818 818 818 818 818 818 818 818 818 818 817 817 817 817 817 817 817 817 816 816 816 816 816 816 816 816 816 816 816 816 816 816 816 816 816 816
808 808 808 808 809 809 809 809 810 810 810 810 811 811 811 812 812 812 813 813 813 814 814 814 813 813 813 813 814 814 814 815 816 816 817 817 817 817 817 817 817 817 817 817 817 817 817 817 817 817 817 817 817 817 817 817 817 817 817 817 817 816 816 816 816 816 816 816 815 815 815 815 815 815 815 815 815 815 815 815 815 815 815 815 815 815
808 808 809 809 809 809 809 810 810 810 810 810 811 811 811 812 812 812 812 813 813 813 813 813 812 812 813 813 813 814 814 815 815 816 816 816 816 817 817 816 816 816 816 816 816 816 816 816 816 816 816 816 816 816 816 816 816 816 816 816 815 815 815 815 815 815 815 815 814 814 814 814 814 814 814 814 814 814 814 814 814 814 814 814 814 814
809 809 809 809 809 810 810 810 810 810 810 810 811 811 811 812 812 812 812 812 812 812 812 812 812 812 812 813 813 813 814 814 814 815 815 815 815 815 815 815 815 815 815 815 815 815 815 815 815 816 816 816 816 815 815 815 815 815 814 814 814 814 814 814 814 814 813 813 813 813 813 813 813 813 813 813 813 813 813 813 813 813 813 813 813 813
809 809 809 810 810 810 810 810 810 810 810 811 811 811 812 812 812 812 812 812 812 812 812 812 812 812 812 812 813 813 813 814 814 814 814 814 814 814 814 814 814 814 814 814 814 814 814 815 815 815 815 814 814 814 814 814 814 813 813 813 813 813 813 813 812 812 812 812 812 812 812 812 812 812 812 812 812 812 812 812 812 812 812 812 812 812
809 809 810 810 810 810 810 810 810 811 811 811 811 812 812 812 812 812 812 812 812 812 812 812 812 812 812 812 812 813 813 813 813 813 814 814 813 813 813 813 813 813 813 813 813 813 813 814 814 813 813 813 813 813 813 813 812 812 812 812 812 812 812 812 812 812 812 812 811 811 811 811 811 811 811 811 811 811 811 811 811 811 811 811 811 811
809 810 810 810 811 811 811 811 811 811 811 812 812 812 812 812 812 812 812 812 812 811 811 811 811 812 812 812 812 812 812 812 813 813 813 813 813 812 812 812 812 812 812 812 812 812 812 812 812 812 812 812 812 812 812 812 811 811 811 811 811 811 811 810 810 810 810 810 810 810 810 810 810 810 810 810 810 810 810 810 810 810 809 809 809 809
810 810 810 811 811 811 811 811 811 811 812 812 812 812 812 812 812 811 811 811 811 811 811 811 811 811 811 811 812 812 812 812 812 812 812 812 812 812 812 812 811 811 811 811 811 811 811 811 811 811 811 811 811 810 810 810 810 809 809 809 809 809 809 809 809 809 809 809 809 809 809 809 809 809 809 809 809 809 809 808 808 808 808 808 808 808
810 810 811 811 811 811 811 812 812 812 812 812 811 811 811 811 811 811 811 811 811 811 811 811 811 811 811 811 811 811 812 812 812 812 811 811 811 811 811 811 811 810 810 810 810 810 810 810 810 810 809 809 809 809 809 808 808 808 808 808 808 808 808 808 808 808 808 808 808 808 808 808 808 808 808 808 808 808 807 807 807 807 807 807 807 807
810 811 811 811 811 811 811 811 811 811 811 811 811 811 811 811 811 811 811 810 810 810 810 810 810 811 811 811 811 811 811 811 811 811 810 810 810 810 810 810 810 810 809 809 809 809 810 809 809 808 808 808 807 807 807 807 807 807 807 807 807 807 807 807 807 807 807 807 807 807 807 807 807 807 807 807 807 807 806 806 806 806 806 805 805 805
811 811 811 811 811 811 811 811 811 811 811 811 811 811 811 811 810 810 810 810 810 810 810 810 810 810 810 810 810 810 810 810 810 810 809 809 809 809 809 809 809 809 809 808 808 808 808 808 807 807 807 807 806 806 806 806 806 806 806 806 806 806 806 807 807 807 807 807 806 806 806 806 806 806 806 806 805 805 805 805 805 804 804 804 804 804
811 811 811 811 811 811 811 811 811 811 811 811 811 811 811 810 810 810 810 810 810 810 810 810 810 810 810 810 810 810 809 809 809 809 808 808 809 809 808 808 808 807 807 807 807 807 807 807 806 806 805 805 805 805 805 805 805 805 805 805 805 805 805 806 806 806 805 805 805 805 805 805 805 804 804 804 804 804 803 803 803 803 802 802 802 802
812 812 812 811 811 811 811 811 811 811 811 811 811 811 811 811 810 810 810 810 810 810 810 810 809 809 809 809 809 809 809 808 808 808 808 807 807 808 808 807 807 806 807 806 806 806 806 805 805 804 804 804 804 804 803 803 804 804 804 804 804 804 804 804 804 804 804 804 804 804 804 803 803 803 803 802 802 802 802 802 801 801 801 801 801 800
812 812 812 812 812 812 812 812 811 811 811 811 811 811 811 811 810 810 810 810 810 810 809 809 809 809 809 809 809 809 808 808 807 807 807 807 807 807 807 807 806 805 805 805 805 805 804 804 803 803 803 803 802 802 802 802 802 802 803 803 803 803 803 803 803 803 803 803 803 802 802 802 802 801 801 801 801 800 800 800 800 799 799 799 799 798
812 812 812 812 812 812 812 812 812 812 811 811 811 811 811 811 810 810 810 810 810 809 809 809 809 809 808 808 808 808 808 808 807 806 806 805 805 806 806 806 805 804 804 804 804 803 803 803 802 802 802 802 801 801 801 801 801 801 802 802 802 802 802 802 802 802 802 802 801 801 801 800 800 800 799 799 799 799 798 798 798 798 797 797 797 797
812 812 812 812 812 812 812 812 812 812 812 811 811 811 811 810 810 810 810 809 809 809 809 809 809 808 808 808 808 808 808 807 807 806 805 804 804 804 805 804 804 803 803 802 802 802 802 801 801 801 801 800 800 800 800 800 800 800 800 800 800 800 800 800 800 800 800 800 799 799 799 798 798 798 798 797 797 797 797 797 796 796 796 796 795 795
812 812 812 812 812 812 812 812 812 812 811 811 811 811 810 810 810 810 809 809 809 809 809 809 808 808 808 808 808 808 807 807 807 806 805 804 803 803 803 803 802 802 801 801 801 801 800 800 800 799 799 799 799 799 799 798 798 798 799 799 799 799 799 799 799 798 798 798 798 797 797 797 797 797 796 796 796 795 795 795 794 794 794 794 794 793
812 812 812 812 812 812 812 812 812 812 811 811 811 810 810 810 810 809 809 809 809 808 808 808 808 808 808 807 807 807 807 807 807 806 805 803 802 802 802 802 802 801 800 800 800 799 799 799 798 798 798 798 797 797 797 797 797 797 797 797 797 797 797 797 797 797 797 797 796 796 796 795 795 795 794 794 794 793 793 793 792 792 792 792 792 792
812 812 812 812 812 812 812 812 812 811 811 811 810 810 810 810 809 809 809 809 809 808 808 808 808 807 807 807 807 807 807 806 806 805 804 803 801 801 801 801 800 800 799 798 798 798 798 797 797 797 797 797 796 796 796 796 795 795 795 796 796 796 796 796 796 795 795 795 795 794 794 794 793 793 792 792 792 792 791 791 791 791 791 790 790 790
812 812 812 812 812 812 812 812 811 811 811 811 810 810 810 810 809 809 809 809 808 808 808 808 807 807 807 806 806 806 806 806 805 805 804 802 801 800 800 800 799 798 797 797 797 797 796 796 796 795 795 795 795 794 794 794 794 794 794 794 794 794 794 794 794 794 794 794 793 793 793 792 792 792 791 791 791 790 790 790 790 789 789 789 789 788
812 812 812 812 812 812 812 811 811 811 811 810 810 810 810 809 809 809 808 808 808 808 807 807 807 806 806 806 805 805 805 805 804 804 803 802 800 799 799 799 798 797 797 796 796 795 795 794 794 794 793 793 793 792 792 792 792 792 792 792 792 792 793 793 793 792 792 792 792 792 791 791 790 790 790 790 789 789 789 789 788 788 788 787 787 787
812 812 812 812 812 812 811 811 811 810 810 810 810 809 809 809 808 808 808 808 808 807 807 807 806 805 805 805 805 804 804 804 804 803 802 801 800 799 798 798 797 797 795 795 795 794 793 792 792 792 792 791 791 791 790 790 790 791 791 791 791 791 792 792 791 791 791 791 790 790 790 789 789 789 789 788 788 788 788 787 787 787 787 786 786 785
812 812 812 812 811 811 811 811 810 810 810 809 809 809 808 808 808 807 807 807 807 807 806 806 805 805 804 804 804 803 803 803 803 802 802 801 799 798 797 797 797 796 795 794 793 792 792 791 790 790 790 789 789 789 789 789 789 789 789 790 790 790 790 790 790 790 789 789 789 788 788 788 788 787 787 787 787 787 787 786 786 785 785 784 784 783
811 811 811 811 811 810 810 810 809 809 809 809 809 808 808 807 807 806 806 806 806 806 806 805 805 804 803 803 803 803 803 802 802 802 801 800 799 797 797 797 796 795 794 792 792 791 791 789 788 788 788 788 788 788 788 788 788 788 788 788 788 788 788 788 788 788 788 788 787 787 787 787 787 786 786 786 786 785 785 785 784 784 783 783 782 781
810 810 810 810 809 809 809 809 808 808 808 807 807 807 807 807 806 805 805 805 805 805 805 804 804 803 803 802 802 802 802 802 801 801 800 799 798 797 796 796 796 795 793 792 790 789 789 788 787 787 787 787 787 787 787 787 787 787 787 787 787 787 787 787 787 787 787 786 786 786 786 785 785 785 785 785 784 784 783 783 782 782 782 781 780 779
810 809 809 809 808 808 808 807 807 807 806 806 806 806 806 805 804 804 803 804 804 804 803 803 803 803 802 802 801 801 801 800 800 800 799 799 797 797 796 796 795 794 793 791 789 787 787 787 787 786 786 786 786 786 786 786 786 786 786 786 786 786 786 786 786 786 785 785 785 784 784 784 784 784 783 783 782 782 782 782 781 781 780 779 778 777
808 808 808 808 807 807 807 806 806 805 805 804 804 803 803 803 803 802 802 803 803 803 802 802 802 802 802 802 801 800 799 799 799 799 798 798 797 796 796 795 795 794 793 792 790 787 786 785 785 785 785 785 785 785 785 785 785 785 785 786 785 785 785 785 784 784 784 783 783 783 783 782 782 782 782 781 781 780 780 780 779 779 778 777 776 776
807 807 807 807 806 806 805 805 804 804 803 803 802 802 802 802 802 802 802 802 802 802 802 802 802 802 802 802 801 800 798 798 798 798 798 797 797 796 795 795 794 794 794 794 793 791 787 785 784 784 785 785 785 785 785 785 785 785 785 784 784 784 784 783 783 783 782 782 782 781 781 781 780 780 780 779 779 779 778 778 778 777 776 775 774 774
806 806 806 805 805 805 804 804 803 802 802 802 801 801 801 801 801 801 801 801 801 801 800 800 800 801 801 801 800 799 798 798 798 797 797 797 796 795 795 795 794 794 794 794 795 794 791 787 785 784 784 784 784 783 783 784 784 783 783 783 782 782 782 782 782 781 781 780 780 780 779 779 778 778 778 777 777 777 777 776 776 776 775 774 773 772
805 805 804 804 804 803 803 802 802 802 801 801 801 800 800 800 800 800 800 800 800 800 799 799 799 799 799 799 798 798 797 797 797 797 797 797 796 795 794 794 794 793 793 793 794 794 792 790 787 784 783 783 783 782 782 782 782 782 782 782 781 781 781 781 781 780 779 779 778 778 777 777 777 777 776 776 775 775 775 774 774 774 773 773 772 771
804 803 803 803 802 802 802 802 801 801 801 800 800 800 800 799 799 799 799 799 799 799 799 799 798 798 798 798 797 797 797 797 797 797 797 796 795 794 794 793 793 793 793 792 792 792 791 790 788 786 784 782 782 782 781 781 781 781 781 781 780 780 779 779 779 779 778 777 777 776 776 775 775 775 774 774 773 773 773 772 772 772 772 772 771 770
803 802 802 802 801 801 801 800 800 800 800 800 800 799 799 799 799 799 798 798 798 798 798 798 798 797 797 797 797 796 795 796 796 797 796 796 795 794 793 793 792 792 792 792 791 791 790 788 787 787 785 782 781 780 780 780 780 780 780 780 779 779 778 778 778 777 776 776 775 774 774 774 773 773 772 772 772 771 771 771 770 771 770 770 770 769
802 801 801 800 800 800 799 799 799 799 799 799 799 799 799 798 798 798 798 798 798 797 797 797 797 797 797 796 796 795 794 794 795 795 795 795 794 794 793 792 792 792 792 791 790 790 789 788 787 786 785 783 781 779 779 779 780 779 779 778 778 778 777 777 776 776 775 774 773 773 772 772 772 771 771 770 770 769 769 769 769 769 768 768 768 767
801 800 800 799 799 799 798 798 798 798 798 798 798 798 798 798 797 797 797 797 797 797 796 796 796 796 795 795 794 794 793 793 793 793 793 793 793 793 792 791 791 791 791 790 790 789 789 788 786 785 785 783 782 780 778 778 778 778 777 777 777 776 775 775 775 774 773 772 772 771 771 770 770 769 769 768 768 768 767 767 767 767 766 766 765 765
800 799 799 799 798 798 798 797 797 798 798 797 797 797 797 797 797 797 796 796 796 795 795 795 794 794 794 794 793 793 792 792 792 792 792 792 792 792 791 790 789 789 790 790 789 789 788 787 786 785 783 782 781 780 779 778 777 777 776 775 775 774 774 773 773 772 772 771 770 770 769 769 768 768 767 767 766 766 765 765 764 764 764 763 763 762
799 799 798 798 798 797 797 797 797 797 797 797 797 797 796 796 796 796 795 795 794 794 794 793 793 793 792 792 792 792 791 791 791 790 790 790 790 790 789 789 788 788 788 788 788 788 788 787 786 785 783 782 780 779 778 778 777 776 774 773 773 772 772 772 772 771 770 770 769 768 767 767 767 766 766 765 765 764 763 763 762 762 762 761 760 759
799 798 798 798 797 797 797 797 796 796 796 796 796 796 795 795 795 794 794 794 793 793 792 792 792 791 791 791 790 790 790 789 789 789 789 789 788 788 788 788 787 787 787 787 787 787 787 786 785 784 783 782 781 779 777 777 776 775 774 773 771 770 770 770 770 769 769 768 767 767 766 765 765 765 764 763 763 762 762 761 760 760 760 759 758 757
798 797 797 797 797 797 796 796 796 796 796 795 795 795 795 794 794 793 793 792 792 792 792 791 790 790 789 789 789 789 788 788 788 787 787 787 787 787 787 787 786 786 786 786 786 786 785 785 784 783 782 782 781 779 777 776 775 775 774 773 771 769 768 768 768 767 767 767 766 765 765 764 763 763 762 762 761 760 760 759 759 758 758 757 757 756
797 797 797 797 796 796 796 795 795 795 795 795 794 794 794 793 793 792 792 791 791 791 790 790 789 789 788 787 787 787 787 787 787 786 786 786 786 786 786 785 785 785 785 785 784 784 784 784 783 782 782 781 780 778 776 774 774 774 773 772 770 768 767 766 766 766 766 765 764 764 763 762 762 761 760 760 759 758 758 758 757 757 756 755 755 755
797 797 796 796 795 795 795 795 794 794 794 794 794 793 793 793 792 792 791 791 790 790 790 789 789 788 787 787 786 786 786 786 786 785 785 785 785 784 784 784 784 784 784 784 783 782 782 782 782 781 780 780 779 778 775 773 772 772 772 771 770 769 767 764 763 764 764 763 762 762 762 761 760 759 758 758 757 757 756 756 755 755 754 754 753 752
796 796 795 795 795 794 794 794 794 794 793 793 793 792 792 792 792 791 791 790 790 789 789 789 788 788 787 786 785 785 785 785 784 784 784 784 783 783 783 783 783 783 783 782 782 782 781 781 780 779 779 779 778 777 775 773 772 771 770 770 770 769 767 764 763 762 762 762 761 760 760 759 759 758 757 756 755 755 754 753 753 752 752 752 751 751
795 795 794 794 794 794 794 793 793 793 793 792 792 792 792 791 791 791 790 790 789 789 788 788 788 787 786 785 785 784 784 783 783 783 783 782 782 782 782 782 782 782 781 781 781 780 780 779 778 778 778 777 776 775 773 772 771 769 768 768 767 767 765 764 763 762 761 760 759 759 758 758 757 757 755 754 753 753 752 752 751 750 750 749 749 748
794 793 793 793 793 793 793 793 792 792 792 792 792 791 791 791 790 790 790 789 789 788 788 787 787 787 786 785 784 783 783 782 782 782 782 781 781 781 781 781 781 780 780 779 779 779 778 777 777 777 776 775 774 773 772 771 770 768 767 766 766 765 763 762 762 761 760 759 758 757 757 757 757 756 754 753 752 751 750 750 749 748 748 747 747 746
793 792 792 792 792 792 792 792 792 792 791 791 791 790 790 790 790 789 789 788 788 787 787 787 787 786 785 784 783 783 782 781 781 780 780 780 780 780 780 780 779 779 779 778 778 777 777 776 776 775 775 774 772 770 769 769 768 767 766 765 764 763 762 761 760 759 759 758 757 756 756 756 755 754 753 752 750 749 748 748 747 747 747 746 745 744
792 792 792 792 792 791 791 791 791 791 791 790 790 790 789 789 789 789 788 788 787 787 787 786 786 785 784 783 783 782 782 781 780 779 779 779 779 779 778 778 778 778 777 777 776 776 775 774 774 773 773 772 771 768 767 766 766 765 764 763 763 762 760 759 758 758 757 757 756 755 755 755 754 753 751 750 748 747 746 746 745 745 745 744 744 743
791 791 791 791 791 791 790 790 790 790 790 789 789 789 788 788 788 788 788 787 787 787 786 786 785 784 783 783 782 781 781 780 779 778 778 778 778 777 777 777 777 777 776 776 775 774 773 772 772 771 771 770 769 767 765 764 763 763 762 762 761 760 759 757 757 756 756 755 754 754 754 753 752 752 751 749 747 745 744 743 743 743 743 742 742 741
790 790 790 790 790 790 790 789 789 789 789 788 788 788 787 787 787 787 787 787 786 786 785 785 784 784 783 782 781 780 780 779 778 777 777 777 777 777 776 776 776 775 775 774 773 772 771 770 769 768 767 767 766 765 763 762 761 761 761 760 759 758 757 756 755 754 754 754 753 752 752 752 751 750 750 748 746 744 742 741 740 740 740 740 740 739
789 789 789 789 789 789 788 788 788 788 788 787 787 787 787 787 786 786 786 786 785 785 784 784 783 783 782 781 780 780 779 778 777 777 776 776 776 775 775 775 775 774 774 773 772 771 770 768 767 765 764 764 763 763 762 760 760 759 758 757 757 757 756 755 753 753 753 752 752 751 751 750 749 749 748 747 745 743 741 739 738 737 738 738 738 737